Flag for U.S.A. Weather past 2 weeks in San Antonio, Texas, U.S.A.

Now
70 °F

Mostly cloudy.


Feels Like: 68 °F
Forecast: 67 / 79 °F
Wind: 14 mph from Southeast

Location: San Antonio International Airport

Current Time: May 5, 2015 at 7:23:34 AM

Latest Report: May 5, 2015 at 6:51 AM


Visibility: 10 mi

Pressure: 29.91 "Hg

Humidity: 87%

Dew point: 66 °F

Location of San AntonioLocation

Historic Weather in San Antonio — Graph

°F

San Antonio temperature yesterday

Maximum temperature yesterday: 81 °F (at 2:51 PM)
Minimum temperature yesterday: 69 °F (at 2:51 AM)
Average temperature yesterday: 74 °F

Past Weeks' High & Low Weather Summary

 TemperatureHumidityPressure
High90 °F (Apr 25, 3:51 PM)97% (Apr 23, 8:51 AM)30.09 "Hg (Apr 23, 8:51 AM)
Low49 °F (Apr 29, 6:51 AM)24% (Apr 27, 7:51 PM)29.48 "Hg (Apr 26, 10:51 PM)
Average71 °F67%29.88 "Hg
* Reported Apr 20 5:51 AM — May 5 5:51 AM, San Antonio, Weather by CustomWeather, © 2015

Note: Actual official high and low records may vary slightly from our data, if they occured in-between our weather recording intervals... More about our weather records

Advertising

San Antonio weather history for previous 24 hours

 ConditionsComfort  
Time TempWeatherWind HumidityBarometerVisibility
5:51 AM
Tue, May 5
70 °FMostly cloudy.13 mph87%29.90 "Hg10 mi
4:51 AM70 °FMostly cloudy.15 mph84%29.91 "Hg10 mi
3:51 AM70 °FMostly cloudy.14 mph84%29.91 "Hg10 mi
2:51 AM70 °FMostly cloudy.12 mph84%29.91 "Hg10 mi
1:51 AM70 °FMostly cloudy.13 mph84%29.93 "Hg10 mi
12:51 AM70 °FMostly cloudy.14 mph81%29.97 "Hg10 mi
12:04 AM71 °FMostly cloudy.16 mph78%30.03 "Hg10 mi
11:51 PM
Mon, May 4
71 °FPartly cloudy.16 mph78%29.98 "Hg10 mi
10:51 PM72 °FPassing clouds.17 mph76%29.98 "Hg10 mi
9:51 PM73 °FPassing clouds.16 mph71%29.96 "Hg10 mi
8:51 PM74 °FPartly sunny.17 mph64%29.94 "Hg10 mi
7:51 PM77 °FBroken clouds.20 mph56%29.92 "Hg10 mi
6:51 PM79 °FPartly sunny.20 mph52%29.93 "Hg10 mi
5:51 PM81 °FBroken clouds.21 mph53%29.93 "Hg10 mi
4:51 PM81 °FBroken clouds.21 mph54%29.94 "Hg10 mi
3:51 PM79 °FMostly cloudy.16 mph60%29.96 "Hg10 mi
2:51 PM81 °FMore clouds than sun.15 mph58%29.98 "Hg10 mi
1:51 PM79 °FBroken clouds.16 mph60%30.00 "Hg10 mi
12:51 PM77 °FMostly cloudy.14 mph64%30.02 "Hg10 mi
11:51 AM80 °FBroken clouds.14 mph62%30.01 "Hg10 mi
10:51 AM74 °FLight rain. Cloudy.17 mph74%30.02 "Hg10 mi
9:51 AM73 °FMostly cloudy.12 mph79%30.01 "Hg10 mi
8:51 AM71 °FMostly cloudy.9 mph84%30.00 "Hg10 mi
7:51 AM69 °FMostly cloudy.12 mph87%29.97 "Hg10 mi
Weather by CustomWeather, © 2015

See weather overviewHow to use our weather pages